Location: Beddau
(51.5575°N, 3.3561°W)
Time: 11:00:15
(UTC+00:00)

Cosmos 1933 Rocket - Pass Details

Date: 03 March 2021
Orbit: 607 x 630 km, 82.5° (Epoch: 16 April)

Event Time Altitude Azimuth Distance (km) Brightness Sun altitude
Rises 18:57:20 0° 169° (S) 2,863 6.8 -10.1°
Reaches altitude 10° 18:59:37 10° 162° (SSE) 1,966 5.9 -10.4°
Maximum altitude 19:03:42 41° 92° (E) 902 3.9 -11.1°
Drops below altitude 10° 19:07:50 10° 23° (NNE) 1,995 6.0 -11.7°
Sets 19:10:10 0° 16° (NNE) 2,910 6.9 -12.1°
